TimeEDT,TemperatureF,Dew PointF,Humidity,Sea Level PressureIn,VisibilityMPH,Wind Direction,Wind SpeedMPH,Gust SpeedMPH,PrecipitationIn,Events,Conditions,WindDirDegrees,DateUTC
12:15 AM,53.6,39.2,58,30.19,10.0,Calm,Calm,-,N/A,,Clear,0,2013-05-26 04:15:00
12:35 AM,51.8,39.2,62,30.20,10.0,Calm,Calm,-,N/A,,Clear,0,2013-05-26 04:35:00
12:55 AM,50.0,42.8,76,30.21,10.0,Calm,Calm,-,N/A,,Clear,0,2013-05-26 04:55:00
1:15 AM,48.2,42.8,82,30.20,10.0,Calm,Calm,-,N/A,,Clear,0,2013-05-26 05:15:00
1:35 AM,48.2,42.8,82,30.21,10.0,Calm,Calm,-,N/A,,Clear,0,2013-05-26 05:35:00
1:55 AM,48.2,42.8,82,30.21,10.0,NW,3.5,-,N/A,,Clear,310,2013-05-26 05:55:00
2:15 AM,46.4,42.8,87,30.21,10.0,ESE,3.5,-,N/A,,Clear,110,2013-05-26 06:15:00
2:35 AM,46.4,42.8,87,30.21,10.0,Calm,Calm,-,N/A,,Clear,0,2013-05-26 06:35:00
2:55 AM,44.6,42.8,93,30.21,10.0,Calm,Calm,-,N/A,,Clear,0,2013-05-26 06:55:00
3:15 AM,46.4,41.0,81,30.20,10.0,Calm,Calm,-,N/A,,Clear,0,2013-05-26 07:15:00
3:35 AM,46.4,42.8,87,30.21,10.0,Calm,Calm,-,N/A,,Clear,0,2013-05-26 07:35:00
3:55 AM,46.4,41.0,81,30.20,10.0,Calm,Calm,-,N/A,,Clear,0,2013-05-26 07:55:00
4:15 AM,46.4,42.8,87,30.20,10.0,Calm,Calm,-,N/A,,Clear,0,2013-05-26 08:15:00
4:35 AM,46.4,41.0,81,30.20,10.0,Calm,Calm,-,N/A,,Clear,0,2013-05-26 08:35:00
4:55 AM,44.6,41.0,87,30.20,10.0,Calm,Calm,-,N/A,,Clear,0,2013-05-26 08:55:00
5:15 AM,44.6,42.8,93,30.21,10.0,Calm,Calm,-,N/A,,Clear,0,2013-05-26 09:15:00
5:35 AM,44.6,42.8,93,30.21,10.0,Calm,Calm,-,N/A,,Clear,0,2013-05-26 09:35:00
5:55 AM,44.6,42.8,93,30.21,10.0,Calm,Calm,-,N/A,,Clear,0,2013-05-26 09:55:00
6:15 AM,44.6,42.8,93,30.22,10.0,Calm,Calm,-,N/A,,Clear,0,2013-05-26 10:15:00
6:35 AM,44.6,42.8,93,30.23,10.0,Calm,Calm,-,N/A,,Clear,0,2013-05-26 10:35:00
6:55 AM,44.6,42.8,93,30.23,10.0,Calm,Calm,-,N/A,,Clear,0,2013-05-26 10:55:00
7:15 AM,46.4,44.6,93,30.23,10.0,Calm,Calm,-,N/A,,Clear,0,2013-05-26 11:15:00
7:35 AM,48.2,44.6,87,30.24,10.0,Calm,Calm,-,N/A,,Clear,0,2013-05-26 11:35:00
7:55 AM,53.6,46.4,77,30.24,10.0,Calm,Calm,-,N/A,,Clear,0,2013-05-26 11:55:00
8:15 AM,57.2,39.2,51,30.24,10.0,Calm,Calm,-,N/A,,Clear,0,2013-05-26 12:15:00
8:35 AM,59.0,39.2,48,30.25,10.0,Calm,Calm,-,N/A,,Clear,0,2013-05-26 12:35:00
8:55 AM,60.8,39.2,45,30.25,10.0,Calm,Calm,-,N/A,,Clear,0,2013-05-26 12:55:00
9:15 AM,62.6,41.0,45,30.26,10.0,Calm,Calm,-,N/A,,Clear,0,2013-05-26 13:15:00
9:35 AM,64.4,41.0,42,30.26,10.0,WSW,5.8,-,N/A,,Clear,250,2013-05-26 13:35:00
9:55 AM,62.6,37.4,39,30.26,10.0,ENE,3.5,-,N/A,,Clear,60,2013-05-26 13:55:00
10:15 AM,64.4,39.2,40,30.26,10.0,North,4.6,-,N/A,,Clear,360,2013-05-26 14:15:00
10:35 AM,64.4,37.4,37,30.25,10.0,Calm,Calm,-,N/A,,Clear,0,2013-05-26 14:35:00
10:55 AM,64.4,37.4,37,30.25,10.0,WSW,3.5,-,N/A,,Scattered Clouds,250,2013-05-26 14:55:00
11:15 AM,64.4,37.4,37,30.24,10.0,SW,5.8,-,N/A,,Clear,220,2013-05-26 15:15:00
11:35 AM,64.4,33.8,32,30.23,10.0,West,4.6,-,N/A,,Clear,280,2013-05-26 15:35:00
11:55 AM,66.2,33.8,30,30.23,10.0,West,9.2,-,N/A,,Clear,260,2013-05-26 15:55:00
12:15 PM,68.0,33.8,28,30.23,10.0,NW,6.9,-,N/A,,Clear,320,2013-05-26 16:15:00
12:35 PM,69.8,33.8,27,30.22,10.0,NW,10.4,-,N/A,,Clear,320,2013-05-26 16:35:00
12:55 PM,69.8,32.0,25,30.22,10.0,WNW,4.6,-,N/A,,Clear,290,2013-05-26 16:55:00
1:15 PM,69.8,33.8,27,30.20,10.0,NW,5.8,-,N/A,,Clear,310,2013-05-26 17:15:00
1:35 PM,71.6,33.8,25,30.19,10.0,West,9.2,-,N/A,,Clear,280,2013-05-26 17:35:00
1:55 PM,71.6,33.8,25,30.19,10.0,WNW,9.2,-,N/A,,Clear,300,2013-05-26 17:55:00
2:15 PM,71.6,33.8,25,30.18,10.0,NW,8.1,-,N/A,,Clear,320,2013-05-26 18:15:00
2:35 PM,71.6,33.8,25,30.17,10.0,West,12.7,17.3,N/A,,Clear,260,2013-05-26 18:35:00
2:55 PM,73.4,33.8,23,30.17,10.0,West,5.8,-,N/A,,Clear,270,2013-05-26 18:55:00
3:15 PM,73.4,30.2,20,30.17,10.0,Calm,Calm,-,N/A,,Scattered Clouds,0,2013-05-26 19:15:00
3:35 PM,73.4,30.2,20,30.16,10.0,West,8.1,-,N/A,,Clear,280,2013-05-26 19:35:00
3:55 PM,73.4,32.0,22,30.16,10.0,SW,4.6,-,N/A,,Clear,230,2013-05-26 19:55:00
4:15 PM,75.2,33.8,22,30.15,10.0,North,4.6,-,N/A,,Clear,360,2013-05-26 20:15:00
4:35 PM,75.2,30.2,19,30.15,10.0,WNW,8.1,16.1,N/A,,Clear,290,2013-05-26 20:35:00
4:55 PM,75.2,32.0,21,30.15,10.0,WNW,5.8,-,N/A,,Clear,300,2013-05-26 20:55:00
5:15 PM,75.2,32.0,21,30.14,10.0,NNW,6.9,-,N/A,,Clear,340,2013-05-26 21:15:00
5:35 PM,75.2,33.8,22,30.14,10.0,North,5.8,-,N/A,,Clear,10,2013-05-26 21:35:00
5:55 PM,75.2,33.8,22,30.14,10.0,North,4.6,-,N/A,,Clear,350,2013-05-26 21:55:00
6:15 PM,75.2,33.8,22,30.15,10.0,North,4.6,-,N/A,,Clear,10,2013-05-26 22:15:00
6:35 PM,73.4,35.6,25,30.15,10.0,North,3.5,-,N/A,,Clear,10,2013-05-26 22:35:00
6:55 PM,73.4,35.6,25,30.15,10.0,North,4.6,-,N/A,,Clear,360,2013-05-26 22:55:00
7:15 PM,71.6,35.6,27,30.16,10.0,North,5.8,-,N/A,,Clear,350,2013-05-26 23:15:00
7:35 PM,69.8,37.4,31,30.16,10.0,Calm,Calm,-,N/A,,Clear,0,2013-05-26 23:35:00
7:55 PM,68.0,37.4,33,30.17,10.0,Calm,Calm,-,N/A,,Clear,0,2013-05-26 23:55:00
8:15 PM,62.6,42.8,48,30.17,10.0,Calm,Calm,-,N/A,,Clear,0,2013-05-27 00:15:00
8:35 PM,60.8,42.8,52,30.18,10.0,Calm,Calm,-,N/A,,Clear,0,2013-05-27 00:35:00
8:55 PM,59.0,42.8,55,30.19,10.0,Calm,Calm,-,N/A,,Clear,0,2013-05-27 00:55:00
9:15 PM,59.0,42.8,55,30.20,10.0,Calm,Calm,-,N/A,,Clear,0,2013-05-27 01:15:00
9:35 PM,59.0,44.6,59,30.20,10.0,Calm,Calm,-,N/A,,Clear,0,2013-05-27 01:35:00
9:55 PM,57.2,44.6,63,30.21,10.0,NW,3.5,-,N/A,,Clear,310,2013-05-27 01:55:00
10:15 PM,55.4,44.6,67,30.22,10.0,Calm,Calm,-,N/A,,Clear,0,2013-05-27 02:15:00
10:35 PM,55.4,48.2,77,30.23,10.0,Calm,Calm,-,N/A,,Clear,0,2013-05-27 02:35:00
10:55 PM,55.4,48.2,77,30.24,10.0,Calm,Calm,-,N/A,,Clear,0,2013-05-27 02:55:00
11:15 PM,55.4,48.2,77,30.23,10.0,Calm,Calm,-,N/A,,Clear,0,2013-05-27 03:15:00
11:35 PM,53.6,48.2,82,30.24,10.0,Calm,Calm,-,N/A,,Clear,0,2013-05-27 03:35:00
11:55 PM,53.6,48.2,82,30.24,10.0,Calm,Calm,-,N/A,,Clear,0,2013-05-27 03:55:00